Location: Banff
(51.1667°N, 115.5667°W)
Time: 03:39:39
(UTC+00:00)

deb Explorer IX - Pass Details

Date: 30 November 2020
Orbit: 536 x 1104 km, 38.8° (Epoch: 25 January)

Event Time Altitude Azimuth Distance (km) Brightness Sun altitude
Rises 00:57:55 0° 233° (SW) 3,532 ? -11.8°
Reaches altitude 10° 01:01:17 10° 218° (SW) 2,477 ? -12.3°
Maximum altitude 01:05:25 20° 173° (S) 1,731 ? -12.9°
Drops below altitude 10° 01:09:08 10° 127° (SE) 2,195 ? -13.4°
Enters shadow 01:09:52 - 121° (ESE) 2,388 ? -13.6°
